Dodge City, KS

11:08 AM CDT on May 26, 2017 (GMT -0500)
Dodge City Regional

Weather History for KDDC - October, 2013

Change the Weather History Date:

Tuesday, October 1, 2013

  Actual Average Record
Temperature  
Mean Temperature 66 °F -  
Max Temperature 82 °F 79 °F 96 °F (1994)
Min Temperature 51 °F 51 °F 24 °F (1876)
Cooling Degree Days 2    
Growing Degree Days 16 (Base 50)    
Moisture  
Dew Point 53 °F    
Average Humidity 62    
Maximum Humidity 89    
Minimum Humidity 25    
Precipitation  
Precipitation 0.00 in - - ()
Sea Level Pressure  
Sea Level Pressure 29.83 in    
Wind  
Wind Speed 10 mph (SE)    
Max Wind Speed 13 mph    
Max Gust Speed 17 mph    
Visibility 10 miles    
Events      
Averages and records for this station are not official NWS values.
T = Trace of Precipitation, MM = Missing Value Source: NWS Daily Summary

Daily Weather History Graph

Daily Weather History Graph

Search for Another Location

Airport or City:

Trip Planner

Search our weather history database for the weather conditions in past years. The results will help you decide how hot, cold, wet, or windy it might be!

Date:

Astronomy

Oct. 01, 2013 Rise Set
Actual Time 7:35 AM CDT 7:22 PM CDT
Civil Twilight 7:09 AM CDT 7:48 PM CDT
Nautical Twilight 6:39 AM CDT 8:19 PM CDT
Astronomical Twilight 6:08 AM CDT 8:49 PM CDT
Moon 4:14 AM CDT (10/1) 5:24 PM CDT (10/1)
Length of Visible Light 12h 39m
Length of Day
11h 46m
Waning Crescent, 12% of the Moon is Illuminated
Oct 1
Waning Crescent
Oct 4
New
Oct 11
First Quarter
Oct 18
Full
Oct 26
Last Quarter

Hourly Weather History & Observations

Time (CDT) Temp. Heat Index Dew Point Humidity Pressure Visibility Wind Dir Wind Speed Gust Speed Precip Events Conditions
12:52 AM 61.0 °F - 52.0 °F 72% 29.76 in 10.0 mi South 12.7 mph - N/A   Clear
1:52 AM 57.9 °F - 51.1 °F 78% 29.76 in 10.0 mi South 10.4 mph - N/A   Clear
2:52 AM 60.1 °F - 51.1 °F 72% 29.76 in 10.0 mi South 12.7 mph - N/A   Clear
3:52 AM 55.9 °F - 50.0 °F 80% 29.76 in 10.0 mi South 10.4 mph - N/A   Clear
4:52 AM 55.9 °F - 50.0 °F 80% 29.75 in 10.0 mi South 10.4 mph - N/A   Clear
5:52 AM 54.0 °F - 48.9 °F 83% 29.78 in 10.0 mi South 3.5 mph - N/A   Clear
6:52 AM 51.1 °F - 48.0 °F 89% 29.81 in 10.0 mi South 8.1 mph - N/A   Clear
7:52 AM 53.1 °F - 48.9 °F 86% 29.83 in 10.0 mi South 5.8 mph - N/A   Clear
8:52 AM 57.9 °F - 51.1 °F 78% 29.84 in 10.0 mi SSE 5.8 mph - N/A   Clear
9:52 AM 63.0 °F - 53.1 °F 70% 29.87 in 10.0 mi North 5.8 mph - N/A   Clear
10:52 AM 68.0 °F - 53.1 °F 59% 29.88 in 10.0 mi East 6.9 mph - N/A   Clear
11:52 AM 72.0 °F - 53.1 °F 51% 29.88 in 10.0 mi ENE 8.1 mph - N/A   Clear
12:52 PM 78.1 °F - 53.1 °F 42% 29.86 in 10.0 mi NE 10.4 mph 17.3 mph N/A   Clear
1:52 PM 80.1 °F - 52.0 °F 38% 29.86 in 10.0 mi East 12.7 mph - N/A   Clear
2:52 PM 81.0 °F 80.4 °F 53.1 °F 38% 29.84 in 10.0 mi East 8.1 mph - N/A   Clear
3:52 PM 82.0 °F - 52.0 °F 35% 29.83 in 10.0 mi ESE 10.4 mph 16.1 mph N/A   Clear
4:52 PM 80.1 °F - 52.0 °F 38% 29.83 in 10.0 mi SSE 12.7 mph - N/A   Clear
5:52 PM 79.0 °F - 54.0 °F 42% 29.85 in 10.0 mi SE 11.5 mph - N/A   Clear
6:52 PM 77.0 °F - 55.9 °F 48% 29.85 in 10.0 mi SSE 9.2 mph - N/A   Clear
7:52 PM 69.1 °F - 57.0 °F 65% 29.86 in 10.0 mi SE 6.9 mph - N/A   Clear
8:52 PM 66.9 °F - 57.0 °F 70% 29.87 in 10.0 mi SSE 6.9 mph - N/A   Clear
9:52 PM 66.9 °F - 57.9 °F 73% 29.87 in 10.0 mi SE 9.2 mph - N/A   Clear
10:52 PM 64.9 °F - 57.9 °F 78% 29.87 in 10.0 mi SE 8.1 mph - N/A   Clear
11:52 PM 64.9 °F - 57.9 °F 78% 29.86 in 10.0 mi SSE 10.4 mph - N/A   Clear